Index of /20260506/WXO-DD/model_gdps/15km/12/028
Name Last modified Size Description
Parent Directory -
20260506T12Z_MSC_GDPS_AirTemp_AGL-120m_LatLon0.15_PT028H.grib2 2026-05-06 18:22 903K
20260506T12Z_MSC_GDPS_AirTemp_AGL-2m_LatLon0.15_PT028H.grib2 2026-05-06 18:22 1.0M
20260506T12Z_MSC_GDPS_AirTemp_AGL-40m_LatLon0.15_PT028H.grib2 2026-05-06 18:22 807K
20260506T12Z_MSC_GDPS_AirTemp_AGL-80m_LatLon0.15_PT028H.grib2 2026-05-06 18:22 912K
20260506T12Z_MSC_GDPS_Albedo_Sfc_LatLon0.15_PT028H.grib2 2026-05-06 18:22 244K
20260506T12Z_MSC_GDPS_ConvectivePrecip-Accum_Sfc_LatLon0.15_PT028H.grib2 2026-05-06 18:22 2.4M
20260506T12Z_MSC_GDPS_DewPointDepression_AGL-2m_LatLon0.15_PT028H.grib2 2026-05-06 18:22 771K
20260506T12Z_MSC_GDPS_DewPoint_AGL-2m_LatLon0.15_PT028H.grib2 2026-05-06 18:22 616K
20260506T12Z_MSC_GDPS_DownwardLongwaveRadiationFlux-Accum_Sfc_LatLon0.15_PT028H.grib2 2026-05-06 18:22 1.0M
20260506T12Z_MSC_GDPS_DownwardShortwaveRadiationFlux-Accum_Sfc_LatLon0.15_PT028H.grib2 2026-05-06 18:22 971K
20260506T12Z_MSC_GDPS_FreezingRain-Accum1h_Sfc_LatLon0.15_PT028H.grib2 2026-05-06 18:22 36K
20260506T12Z_MSC_GDPS_FreezingRain-Accum_Sfc_LatLon0.15_PT028H.grib2 2026-05-06 18:22 176K
20260506T12Z_MSC_GDPS_IcePellets-Accum1h_Sfc_LatLon0.15_PT028H.grib2 2026-05-06 18:22 13K
20260506T12Z_MSC_GDPS_IcePellets-Accum_Sfc_LatLon0.15_PT028H.grib2 2026-05-06 18:22 33K
20260506T12Z_MSC_GDPS_LatentHeatNetFlux_Sfc_LatLon0.15_PT028H.grib2 2026-05-06 18:22 539K
20260506T12Z_MSC_GDPS_NetLongwaveRadiationFlux-Accum_Sfc_LatLon0.15_PT028H.grib2 2026-05-06 18:22 1.0M
20260506T12Z_MSC_GDPS_NetShortwaveRadiationFlux-Accum_Sfc_LatLon0.15_PT028H.grib2 2026-05-06 18:22 940K
20260506T12Z_MSC_GDPS_O3MixingRatio_Sfc_LatLon0.15_PT028H.grib2 2026-05-06 18:19 2.0M
20260506T12Z_MSC_GDPS_O3_EAtm_LatLon0.15_PT028H.grib2 2026-05-06 18:19 2.5M
20260506T12Z_MSC_GDPS_PlanetaryBoundaryLayerHeight_Sfc_LatLon0.15_PT028H.grib2 2026-05-06 18:22 2.5M
20260506T12Z_MSC_GDPS_Precip-Accum1h_Sfc_LatLon0.15_PT028H.grib2 2026-05-06 18:22 3.3M
20260506T12Z_MSC_GDPS_Precip-Accum_Sfc_LatLon0.15_PT028H.grib2 2026-05-06 18:22 4.5M
20260506T12Z_MSC_GDPS_PrecipRate_Sfc_LatLon0.15_PT028H.grib2 2026-05-06 18:22 3.0M
20260506T12Z_MSC_GDPS_Pressure_MSL_LatLon0.15_PT028H.grib2 2026-05-06 18:22 724K
20260506T12Z_MSC_GDPS_Pressure_Sfc_LatLon0.15_PT028H.grib2 2026-05-06 18:22 1.1M
20260506T12Z_MSC_GDPS_RadiativeTemp_Sfc_LatLon0.15_PT028H.grib2 2026-05-06 18:22 657K
20260506T12Z_MSC_GDPS_Rain-Accum1h_Sfc_LatLon0.15_PT028H.grib2 2026-05-06 18:22 1.7M
20260506T12Z_MSC_GDPS_Rain-Accum_Sfc_LatLon0.15_PT028H.grib2 2026-05-06 18:22 3.4M
20260506T12Z_MSC_GDPS_RelativeHumidity_AGL-2m_LatLon0.15_PT028H.grib2 2026-05-06 18:22 1.0M
20260506T12Z_MSC_GDPS_Runoff-Accum_Sfc_LatLon0.15_PT028H.grib2 2026-05-06 18:22 95K
20260506T12Z_MSC_GDPS_SensibleHeatNetFlux_Sfc_LatLon0.15_PT028H.grib2 2026-05-06 18:22 477K
20260506T12Z_MSC_GDPS_Snow-Accum1h_Sfc_LatLon0.15_PT028H.grib2 2026-05-06 18:22 1.0M
20260506T12Z_MSC_GDPS_Snow-Accum_Sfc_LatLon0.15_PT028H.grib2 2026-05-06 18:22 1.8M
20260506T12Z_MSC_GDPS_SnowDepth_Sfc_LatLon0.15_PT028H.grib2 2026-05-06 18:22 1.7M
20260506T12Z_MSC_GDPS_SoilTemp_DBS-0to10cm_LatLon0.15_PT028H.grib2 2026-05-06 18:22 502K
20260506T12Z_MSC_GDPS_SoilTemp_Sfc_LatLon0.15_PT028H.grib2 2026-05-06 18:22 571K
20260506T12Z_MSC_GDPS_SoilVolumetricWaterContent_DBS-0to10cm_LatLon0.15_PT028H.grib2 2026-05-06 18:22 595K
20260506T12Z_MSC_GDPS_SoilVolumetricWaterContent_DBS-0to1cm_LatLon0.15_PT028H.grib2 2026-05-06 18:22 651K
20260506T12Z_MSC_GDPS_SpecificHumidity_AGL-120m_LatLon0.15_PT028H.grib2 2026-05-06 18:22 1.1M
20260506T12Z_MSC_GDPS_SpecificHumidity_AGL-2m_LatLon0.15_PT028H.grib2 2026-05-06 18:22 1.2M
20260506T12Z_MSC_GDPS_SpecificHumidity_AGL-40m_LatLon0.15_PT028H.grib2 2026-05-06 18:22 1.1M
20260506T12Z_MSC_GDPS_SpecificHumidity_AGL-80m_LatLon0.15_PT028H.grib2 2026-05-06 18:22 1.1M
20260506T12Z_MSC_GDPS_SpecificHumidity_Sfc_LatLon0.15_PT028H.grib2 2026-05-06 18:22 678K
20260506T12Z_MSC_GDPS_TotalCloudCover_Sfc_LatLon0.15_PT028H.grib2 2026-05-06 18:22 824K
20260506T12Z_MSC_GDPS_UVIndex-ClearSky_Sfc_LatLon0.15_PT028H.grib2 2026-05-06 18:19 1.0M
20260506T12Z_MSC_GDPS_UVIndex_Sfc_LatLon0.15_PT028H.grib2 2026-05-06 18:19 1.5M
20260506T12Z_MSC_GDPS_UpwardLongwaveRadiationFlux_NTAtm_LatLon0.15_PT028H.grib2 2026-05-06 18:22 838K
20260506T12Z_MSC_GDPS_WindDir_AGL-10m_LatLon0.15_PT028H.grib2 2026-05-06 18:22 1.3M
20260506T12Z_MSC_GDPS_WindDir_AGL-120m_LatLon0.15_PT028H.grib2 2026-05-06 18:22 1.3M
20260506T12Z_MSC_GDPS_WindDir_AGL-40m_LatLon0.15_PT028H.grib2 2026-05-06 18:22 1.4M
20260506T12Z_MSC_GDPS_WindDir_AGL-80m_LatLon0.15_PT028H.grib2 2026-05-06 18:22 1.4M
20260506T12Z_MSC_GDPS_WindDir_IsbL-0700_LatLon0.15_PT028H.grib2 2026-05-06 18:22 1.6M
20260506T12Z_MSC_GDPS_WindGust-Max_AGL-10m_LatLon0.15_PT028H.grib2 2026-05-06 18:22 1.8M
20260506T12Z_MSC_GDPS_WindGust-Min_AGL-10m_LatLon0.15_PT028H.grib2 2026-05-06 18:22 2.2M
20260506T12Z_MSC_GDPS_WindGust_AGL-10m_LatLon0.15_PT028H.grib2 2026-05-06 18:22 2.2M
20260506T12Z_MSC_GDPS_WindSpeed_AGL-10m_LatLon0.15_PT028H.grib2 2026-05-06 18:22 1.1M
20260506T12Z_MSC_GDPS_WindSpeed_AGL-120m_LatLon0.15_PT028H.grib2 2026-05-06 18:22 1.2M
20260506T12Z_MSC_GDPS_WindSpeed_AGL-40m_LatLon0.15_PT028H.grib2 2026-05-06 18:22 1.2M
20260506T12Z_MSC_GDPS_WindSpeed_AGL-80m_LatLon0.15_PT028H.grib2 2026-05-06 18:22 1.2M
20260506T12Z_MSC_GDPS_WindSpeed_IsbL-0700_LatLon0.15_PT028H.grib2 2026-05-06 18:22 1.5M
20260506T12Z_MSC_GDPS_WindU_AGL-10m_LatLon0.15_PT028H.grib2 2026-05-06 18:22 1.6M
20260506T12Z_MSC_GDPS_WindU_AGL-120m_LatLon0.15_PT028H.grib2 2026-05-06 18:22 968K
20260506T12Z_MSC_GDPS_WindU_AGL-40m_LatLon0.15_PT028H.grib2 2026-05-06 18:22 963K
20260506T12Z_MSC_GDPS_WindU_AGL-80m_LatLon0.15_PT028H.grib2 2026-05-06 18:22 968K
20260506T12Z_MSC_GDPS_WindU_IsbL-0700_LatLon0.15_PT028H.grib2 2026-05-06 18:22 1.2M
20260506T12Z_MSC_GDPS_WindV_AGL-10m_LatLon0.15_PT028H.grib2 2026-05-06 18:22 1.3M
20260506T12Z_MSC_GDPS_WindV_AGL-120m_LatLon0.15_PT028H.grib2 2026-05-06 18:22 970K
20260506T12Z_MSC_GDPS_WindV_AGL-40m_LatLon0.15_PT028H.grib2 2026-05-06 18:22 964K
20260506T12Z_MSC_GDPS_WindV_AGL-80m_LatLon0.15_PT028H.grib2 2026-05-06 18:22 970K
20260506T12Z_MSC_GDPS_WindV_IsbL-0700_LatLon0.15_PT028H.grib2 2026-05-06 18:22 1.2M